Weather History for Cheraw, SC

Change the Weather History Date:

Monday, January 28, 2013

  Actual Average (KFLO) Record (KFLO)
Temperature  
Mean Temperature 44 °F 46 °F  
Max Temperature 55 °F 56 °F 82 °F (1974)
Min Temperature 32 °F 35 °F 12 °F (1986)
Degree Days  
Heating Degree Days 22 19  
Month to date heating degree days 565  
Since 1 July heating degree days 1544  
Cooling Degree Days 0 0  
Month to date cooling degree days 0  
Year to date cooling degree days 0  
Moisture  
Dew Point 37 °F    
Average Humidity 80    
Maximum Humidity 100    
Minimum Humidity 57    
Precipitation  
Precipitation 0.00 in 0.10 in 0.89 in (1962)
Month to date precipitation 2.92  
Year to date precipitation 2.92  
Sea Level Pressure  
Sea Level Pressure 30.39 in    
Wind  
Wind Speed 4 mph (SSW)    
Max Wind Speed 12 mph    
Max Gust Speed 16 mph    
Visibility 9 miles    
Events      
T = Trace of Precipitation, MM = Missing Value Source: NWS Daily Summary

Daily Weather History Graph

Daily Weather History Graph

Search for Another Location

Airport:

Trip Planner

Search our weather history database for the weather conditions in past years. The results will help you decide how hot, cold, wet, or windy it might be!

Date:

Astronomy

Jan. 28, 2013 Rise Set
Actual Time 7:20 AM EST 5:45 PM EST
Civil Twilight 6:54 AM EST 6:12 PM EST
Nautical Twilight 6:23 AM EST 6:42 PM EST
Astronomical Twilight 5:53 AM EST 7:12 PM EST
Moon 7:31 PM EST (1/28) 7:51 AM EST (1/28)
Length of Visible Light 11h 18m
Length of Day
10h 24m
Full, 98% of the Moon is Illuminated
Jan 28
Full
Feb 3
Last Quarter
Feb 10
New
Feb 17
First Quarter
Feb 25
Full

Hourly Weather History & Observations

Time (EST) Temp. Windchill Dew Point Humidity Pressure Visibility Wind Dir Wind Speed Gust Speed Precip Events Conditions
12:15 AM 35.6 °F 30.7 °F 30.2 °F 81% 30.50 in 9.0 mi ESE 5.8 mph - N/A   Overcast
12:35 AM 35.6 °F 29.9 °F 30.2 °F 81% 30.50 in 9.0 mi ESE 6.9 mph - N/A   Mostly Cloudy
12:55 AM 33.8 °F 27.7 °F 30.2 °F 87% 30.50 in 9.0 mi ENE 6.9 mph - N/A   Partly Cloudy
1:15 AM 33.8 °F 27.7 °F 30.2 °F 87% 30.48 in 9.0 mi ESE 6.9 mph - N/A   Clear
1:35 AM 35.6 °F 30.7 °F 30.2 °F 81% 30.48 in 9.0 mi NE 5.8 mph - N/A   Clear
1:55 AM 35.6 °F - 30.2 °F 81% 30.48 in 8.0 mi Calm Calm - N/A   Clear
2:15 AM 35.6 °F - 30.2 °F 81% 30.48 in 9.0 mi Calm Calm - N/A   Clear
2:35 AM 35.6 °F 32.8 °F 30.2 °F 81% 30.48 in 9.0 mi ENE 3.5 mph - N/A   Partly Cloudy
2:55 AM 35.6 °F 31.7 °F 32.0 °F 87% 30.48 in 9.0 mi NE 4.6 mph - N/A   Mostly Cloudy
3:15 AM 35.6 °F 31.7 °F 32.0 °F 87% 30.47 in 9.0 mi ENE 4.6 mph - N/A   Mostly Cloudy
3:55 AM 35.6 °F 28.6 °F 32.0 °F 87% 30.47 in 10.0 mi NNE 9.2 mph - N/A   Overcast
4:15 AM 33.8 °F 28.6 °F 32.0 °F 93% 30.47 in 8.0 mi ENE 5.8 mph - N/A   Mostly Cloudy
4:35 AM 33.8 °F 28.6 °F 32.0 °F 93% 30.45 in 8.0 mi ENE 5.8 mph - N/A   Clear
4:55 AM 32.0 °F - 32.0 °F 100% 30.46 in 8.0 mi Calm Calm - N/A   Clear
5:15 AM 32.0 °F - 30.2 °F 93% 30.46 in 7.0 mi Calm Calm - N/A   Clear
5:35 AM 32.0 °F - 30.2 °F 93% 30.45 in 7.0 mi Calm Calm - N/A   Partly Cloudy
5:55 AM 32.0 °F - 32.0 °F 100% 30.46 in 7.0 mi Calm Calm - N/A   Partly Cloudy
6:15 AM 32.0 °F - 30.2 °F 93% 30.47 in 7.0 mi Calm Calm - N/A   Scattered Clouds
6:35 AM 32.0 °F - 32.0 °F 100% 30.47 in 7.0 mi Calm Calm - N/A   Overcast
6:55 AM 33.8 °F 30.8 °F 32.0 °F 93% 30.47 in 6.0 mi East 3.5 mph - N/A   Overcast
7:15 AM 33.8 °F - 32.0 °F 93% 30.48 in 6.0 mi Calm Calm - N/A   Overcast
7:35 AM 33.8 °F - 32.0 °F 93% 30.49 in 5.0 mi Calm Calm - N/A   Overcast
7:55 AM 33.8 °F - 32.0 °F 93% 30.49 in 5.0 mi Calm Calm - N/A   Overcast
8:15 AM 35.6 °F - 32.0 °F 87% 30.48 in 5.0 mi Calm Calm - N/A   Overcast
8:35 AM 35.6 °F - 32.0 °F 87% 30.48 in 7.0 mi Calm Calm - N/A   Overcast
8:55 AM 37.4 °F - 32.0 °F 81% 30.47 in 7.0 mi Calm Calm - N/A   Overcast
9:15 AM 37.4 °F 34.9 °F 32.0 °F 81% 30.46 in 8.0 mi SE 3.5 mph - N/A   Overcast
9:35 AM 39.2 °F 34.2 °F 33.8 °F 81% 30.46 in 9.0 mi SSE 6.9 mph - N/A   Overcast
9:55 AM 42.8 °F 39.3 °F 33.8 °F 70% 30.46 in 10.0 mi South 5.8 mph - N/A   Overcast
10:15 AM 44.6 °F - 33.8 °F 66% 30.45 in 10.0 mi Calm Calm - N/A   Overcast
10:35 AM 44.6 °F - 32.0 °F 61% 30.46 in 10.0 mi Calm Calm - N/A   Overcast
10:55 AM 46.4 °F 45.2 °F 32.0 °F 57% 30.45 in 10.0 mi SSE 3.5 mph - N/A   Overcast
11:15 AM 46.4 °F 42.9 °F 35.6 °F 66% 30.44 in 10.0 mi South 6.9 mph - N/A   Overcast
11:35 AM 48.2 °F - 35.6 °F 62% 30.44 in 10.0 mi Calm Calm - N/A   Overcast
11:55 AM 50.0 °F - 37.4 °F 62% 30.41 in 10.0 mi South 11.5 mph 16.1 mph N/A   Overcast
12:15 PM 51.8 °F - 37.4 °F 58% 30.41 in 10.0 mi SE 6.9 mph - N/A   Mostly Cloudy
12:35 PM 51.8 °F - 39.2 °F 62% 30.39 in 10.0 mi South 10.4 mph - N/A   Overcast
12:55 PM 53.6 °F - 39.2 °F 58% 30.37 in 10.0 mi SSW 6.9 mph - N/A   Mostly Cloudy
1:15 PM 53.6 °F - 41.0 °F 62% 30.36 in 10.0 mi SSE 6.9 mph - N/A   Overcast
1:35 PM 53.6 °F - 41.0 °F 62% 30.35 in 10.0 mi SSW 5.8 mph - N/A   Overcast
1:55 PM 55.4 °F - 41.0 °F 58% 30.33 in 10.0 mi SE 4.6 mph - N/A   Overcast
2:15 PM 55.4 °F - 41.0 °F 58% 30.33 in 10.0 mi South 4.6 mph - N/A   Overcast
2:35 PM 55.4 °F - 42.8 °F 63% 30.33 in 10.0 mi WSW 10.4 mph - N/A   Overcast
2:55 PM 53.6 °F - 42.8 °F 67% 30.32 in 10.0 mi SW 5.8 mph - N/A   Overcast
3:15 PM 55.4 °F - 42.8 °F 63% 30.32 in 10.0 mi SSW 4.6 mph - N/A   Overcast
3:35 PM 55.4 °F - 42.8 °F 63% 30.31 in 10.0 mi WSW 9.2 mph - N/A   Overcast
3:55 PM 55.4 °F - 42.8 °F 63% 30.30 in 10.0 mi WSW 9.2 mph - N/A   Mostly Cloudy
4:15 PM 55.4 °F - 42.8 °F 63% 30.30 in 10.0 mi SSW 6.9 mph - N/A   Mostly Cloudy
4:35 PM 55.4 °F - 42.8 °F 63% 30.30 in 10.0 mi SSW 4.6 mph - N/A   Mostly Cloudy
4:55 PM 55.4 °F - 42.8 °F 63% 30.29 in 10.0 mi South 3.5 mph - N/A   Overcast
5:15 PM 55.4 °F - 44.6 °F 67% 30.29 in 10.0 mi Calm Calm - N/A   Overcast
5:35 PM 53.6 °F - 44.6 °F 72% 30.29 in 10.0 mi WSW 3.5 mph - N/A   Scattered Clouds
5:55 PM 53.6 °F - 44.6 °F 72% 30.29 in 10.0 mi WSW 5.8 mph - N/A   Clear
6:15 PM 51.8 °F - 44.6 °F 76% 30.29 in 10.0 mi SW 3.5 mph - N/A   Scattered Clouds
6:35 PM 51.8 °F - 44.6 °F 76% 30.30 in 10.0 mi SW 3.5 mph - N/A   Mostly Cloudy
6:55 PM 51.8 °F - 44.6 °F 76% 30.29 in 10.0 mi Calm Calm - N/A   Mostly Cloudy
7:15 PM 48.2 °F - 44.6 °F 87% 30.30 in 10.0 mi WNW 4.6 mph - N/A   Scattered Clouds
7:35 PM 50.0 °F - 44.6 °F 82% 30.30 in 10.0 mi West 5.8 mph - N/A   Scattered Clouds
7:55 PM 50.0 °F - 44.6 °F 82% 30.30 in 10.0 mi West 6.9 mph - N/A   Mostly Cloudy
8:15 PM 48.2 °F - 44.6 °F 87% 30.30 in 10.0 mi West 5.8 mph - N/A   Partly Cloudy
8:35 PM 48.2 °F - 44.6 °F 87% 30.30 in 10.0 mi SW 5.8 mph - N/A   Clear
8:55 PM 46.4 °F 45.2 °F 44.6 °F 93% 30.30 in 10.0 mi SW 3.5 mph - N/A   Clear
9:15 PM 46.4 °F - 42.8 °F 87% 30.30 in 10.0 mi Calm Calm - N/A   Clear
9:35 PM 44.6 °F - 42.8 °F 93% 30.29 in 10.0 mi Calm Calm - N/A   Clear
9:55 PM 44.6 °F 41.4 °F 42.8 °F 93% 30.29 in 10.0 mi SSW 5.8 mph - N/A   Clear
10:15 PM 44.6 °F 43.1 °F 42.8 °F 93% 30.29 in 10.0 mi South 3.5 mph - N/A   Clear
10:35 PM 42.8 °F - 42.8 °F 100% 30.28 in 8.0 mi Calm Calm - N/A   Clear
10:55 PM 44.6 °F 43.1 °F 42.8 °F 93% 30.28 in 10.0 mi West 3.5 mph - N/A   Clear
11:15 PM 42.8 °F 39.3 °F 42.8 °F 100% 30.28 in 9.0 mi WSW 5.8 mph - N/A   Clear
11:35 PM 44.6 °F 41.4 °F 42.8 °F 93% 30.28 in 9.0 mi West 5.8 mph - N/A   Clear
11:55 PM 42.8 °F 37.0 °F 42.8 °F 100% 30.28 in 10.0 mi SSW 10.4 mph - N/A   Clear